Flag for U.S.A. Weather past 2 weeks in Livonia, Michigan, U.S.A.

Now
76 °F

Sunny.


Feels Like: 78 °F
Forecast: 56 / 82 °F
Wind: 3 mph from North

Location: Detroit Metropolitan Wayne County Airport

Current Time: Jul 4, 2015 at 1:25:10 PM

Latest Report: Jul 4, 2015 at 12:53 PM


Visibility: 10 mi

Pressure: 29.99 "Hg

Humidity: 40%

Dew point: 50 °F

Location of LivoniaLocation

Historic Weather in Livonia — Graph

°F

Livonia temperature yesterday

Maximum temperature yesterday: 75 °F (at 3:53 PM)
Minimum temperature yesterday: 53 °F (at 5:53 AM)
Average temperature yesterday: 65 °F

Past Weeks' High & Low Weather Summary

 TemperatureHumidityPressure
High84 °F (Jun 22, 3:57 PM)97% (Jul 1, 1:53 AM)30.16 "Hg (Jul 1, 1:53 AM)
Low53 °F (Jul 3, 5:53 AM)30% (Jun 24, 2:53 PM)29.70 "Hg (Jun 27, 4:53 PM)
Average68 °F70%29.92 "Hg
* Reported Jun 19 11:53 AM — Jul 4 11:53 AM, Livonia, Weather by CustomWeather, © 2015

Note: Actual official high and low records may vary slightly from our data, if they occured in-between our weather recording intervals... More about our weather records

Advertising

Livonia weather history for previous 24 hours

 ConditionsComfort  
Time TempWeatherWind HumidityBarometerVisibility
11:53 AM
Sat, Jul 4
76 °FSunny.6 mph42%29.99 "Hg10 mi
10:53 AM74 °FSunny.6 mph45%29.99 "Hg10 mi
9:53 AM72 °FSunny.5 mph55%29.98 "Hg10 mi
8:53 AM66 °FSunny.7 mph70%29.98 "Hg10 mi
7:53 AM62 °FPassing clouds.3 mph75%29.96 "Hg10 mi
6:53 AM58 °FPassing clouds.No wind84%29.95 "Hg8 mi
5:53 AM57 °FPassing clouds.No wind83%29.94 "Hg7 mi
4:53 AM59 °FClear.No wind84%29.93 "Hg7 mi
3:53 AM59 °FClear.No wind84%29.93 "Hg8 mi
2:53 AM59 °FClear.No wind84%29.93 "Hg9 mi
1:53 AM59 °FPassing clouds.5 mph81%29.94 "Hg10 mi
12:53 AM62 °FPassing clouds.No wind80%29.93 "Hg10 mi
11:53 PM
Fri, Jul 3
63 °FPassing clouds.No wind75%29.93 "Hg10 mi
10:53 PM64 °FPassing clouds.3 mph75%29.94 "Hg10 mi
9:53 PM66 °FPartly sunny.3 mph68%29.92 "Hg10 mi
8:53 PM68 °FPartly sunny.5 mph63%29.91 "Hg10 mi
7:53 PM71 °FPartly sunny.7 mph53%29.91 "Hg10 mi
6:53 PM73 °FBroken clouds.5 mph53%29.91 "Hg10 mi
5:53 PM74 °FBroken clouds.8 mph53%29.93 "Hg10 mi
4:53 PM73 °FBroken clouds.13 mph55%29.94 "Hg10 mi
3:53 PM75 °FBroken clouds.No wind50%29.95 "Hg10 mi
2:53 PM73 °FBroken clouds.9 mph55%29.98 "Hg10 mi
1:53 PM72 °FCloudy.5 mph52%29.98 "Hg10 mi
Weather by CustomWeather, © 2015

See weather overviewHow to use our weather pages